| time (UTC) | temp F | wind direction | speed MPH | gust MPH | rain 1hr in | rain 24hr in | rain mn in | humidity % | barometer mb |
| 20260831030523 | 84 | 115 | 2.0 | 9.0 | 0.00 | 0.00 | 0.00 | 58 | 1015.9 |
| 20260831030023 | 84 | 125 | 2.0 | 5.0 | 0.00 | 0.00 | 0.00 | 58 | 1015.8 |
| 20260831025523 | 84 | 119 | 2.0 | 6.0 | 0.00 | 0.00 | 0.00 | 58 | 1015.7 |
| 20260831025025 | 84 | 121 | 3.0 | 8.0 | 0.00 | 0.00 | 0.00 | 57 | 1015.6 |
| 20260831024523 | 85 | 105 | 2.0 | 8.0 | 0.00 | 0.00 | 0.00 | 58 | 1015.4 |
| 20260831024025 | 85 | 135 | 2.0 | 7.0 | 0.00 | 0.00 | 0.00 | 58 | 1015.4 |
| 20260831023523 | 85 | 153 | 3.0 | 11.0 | 0.00 | 0.00 | 0.00 | 58 | 1015.2 |
| 20260831023022 | 85 | 117 | 2.0 | 11.0 | 0.00 | 0.00 | 0.00 | 58 | 1015.1 |
| 20260831022522 | 85 | 142 | 2.0 | 5.0 | 0.00 | 0.00 | 0.00 | 58 | 1015.0 |
| 20260831022021 | 85 | 111 | 1.0 | 7.0 | 0.00 | 0.00 | 0.00 | 57 | 1014.8 |
| 20260831021521 | 85 | 111 | 1.0 | 7.0 | 0.00 | 0.00 | 0.00 | 57 | 1014.7 |
| 20260831021021 | 85 | 108 | 2.0 | 9.0 | 0.00 | 0.00 | 0.00 | 57 | 1014.7 |
| 20260831020521 | 86 | 107 | 3.0 | 9.0 | 0.00 | 0.00 | 0.00 | 56 | 1014.6 |
| 20260831020020 | 86 | 112 | 2.0 | 7.0 | 0.00 | 0.00 | 0.00 | 56 | 1014.5 |
| 20260831015520 | 86 | 115 | 3.0 | 9.0 | 0.00 | 0.00 | 0.00 | 55 | 1014.4 |
| 20260831015020 | 86 | 98 | 2.0 | 9.0 | 0.00 | 0.00 | 0.00 | 55 | 1014.4 |
| 20260831014523 | 86 | 118 | 2.0 | 13.0 | 0.00 | 0.00 | 0.00 | 55 | 1014.4 |
| 20260831014020 | 86 | 152 | 4.0 | 13.0 | 0.00 | 0.00 | 0.00 | 55 | 1014.3 |
| 20260831013520 | 86 | 103 | 3.0 | 11.0 | 0.00 | 0.00 | 0.00 | 55 | 1014.2 |
| 20260831013020 | 87 | 116 | 2.0 | 10.0 | 0.00 | 0.00 | 0.00 | 54 | 1014.2 |
| 20260831012520 | 87 | 110 | 2.0 | 10.0 | 0.00 | 0.00 | 0.00 | 54 | 1014.2 |
| 20260831012020 | 87 | 105 | 3.0 | 7.0 | 0.00 | 0.00 | 0.00 | 53 | 1014.2 |
| 20260831011523 | 87 | 106 | 1.0 | 8.0 | 0.00 | 0.00 | 0.00 | 52 | 1014.1 |
| 20260831011019 | 87 | 106 | 2.0 | 8.0 | 0.00 | 0.00 | 0.00 | 52 | 1014.1 |
| 20260831010519 | 88 | 105 | 2.0 | 7.0 | 0.00 | 0.00 | 0.00 | 51 | 1014.1 |
| 20260831010018 | 88 | 101 | 1.0 | 5.0 | 0.00 | 0.00 | 0.00 | 51 | 1014.0 |
| 20260831005518 | 89 | 101 | 1.0 | 3.0 | 0.00 | 0.00 | 0.00 | 49 | 1014.0 |
| 20260831005023 | 89 | 101 | 1.0 | 5.0 | 0.00 | 0.00 | 0.00 | 49 | 1013.9 |
| 20260831004518 | 89 | 101 | 1.0 | 5.0 | 0.00 | 0.00 | 0.00 | 49 | 1013.7 |
| 20260831004018 | 89 | 101 | 1.0 | 6.0 | 0.00 | 0.00 | 0.00 | 49 | 1013.7 |
| 20260831003518 | 90 | 101 | 2.0 | 8.0 | 0.00 | 0.00 | 0.00 | 48 | 1013.6 |
| 20260831003018 | 90 | 101 | 3.0 | 8.0 | 0.00 | 0.00 | 0.00 | 47 | 1013.7 |
| 20260831002517 | 90 | 101 | 2.0 | 7.0 | 0.00 | 0.00 | 0.00 | 47 | 1013.7 |
| 20260831002020 | 90 | 98 | 2.0 | 7.0 | 0.00 | 0.00 | 0.00 | 47 | 1013.7 |
| 20260831001517 | 91 | 98 | 2.0 | 9.0 | 0.00 | 0.00 | 0.00 | 46 | 1013.8 |
| 20260831001016 | 91 | 101 | 3.0 | 10.0 | 0.00 | 0.00 | 0.00 | 45 | 1013.8 |
| 20260831000516 | 91 | 101 | 4.0 | 10.0 | 0.00 | 0.00 | 0.00 | 44 | 1013.7 |
| 20260831000016 | 91 | 100 | 3.0 | 9.0 | 0.00 | 0.00 | 0.00 | 45 | 1013.8 |
| 20260830235515 | 92 | 71 | 4.0 | 10.0 | 0.00 | 0.00 | 0.00 | 44 | 1013.7 |
| 20260830235019 | 92 | 98 | 5.0 | 10.0 | 0.00 | 0.00 | 0.00 | 43 | 1013.7 |
| 20260830234515 | 92 | 102 | 4.0 | 9.0 | 0.00 | 0.00 | 0.00 | 43 | 1013.7 |
| 20260830234015 | 92 | 120 | 5.0 | 9.0 | 0.00 | 0.00 | 0.00 | 42 | 1013.7 |
| 20260830233517 | 92 | 105 | 2.0 | 6.0 | 0.00 | 0.00 | 0.00 | 42 | 1013.7 |
| 20260830233014 | 92 | 95 | 1.0 | 6.0 | 0.00 | 0.00 | 0.00 | 42 | 1013.7 |
| 20260830232514 | 92 | 94 | 0.0 | 5.0 | 0.00 | 0.00 | 0.00 | 43 | 1013.7 |
| 20260830232016 | 92 | 94 | 1.0 | 10.0 | 0.00 | 0.00 | 0.00 | 42 | 1013.7 |
| 20260830231517 | 92 | 92 | 6.0 | 10.0 | 0.00 | 0.00 | 0.00 | 42 | 1013.7 |
| 20260830231013 | 92 | 108 | 3.0 | 8.0 | 0.00 | 0.00 | 0.00 | 41 | 1013.8 |
| 20260830230511 | 93 | 128 | 2.0 | 10.0 | 0.00 | 0.00 | 0.00 | 41 | 1013.8 |
| 20260830230010 | 93 | 136 | 3.0 | 10.0 | 0.00 | 0.00 | 0.00 | 41 | 1013.8 |
| 20260830225510 | 93 | 108 | 0.0 | 8.0 | 0.00 | 0.00 | 0.00 | 40 | 1013.9 |
| 20260830225013 | 93 | 98 | 1.0 | 7.0 | 0.00 | 0.00 | 0.00 | 40 | 1013.9 |
| 20260830224510 | 93 | 97 | 2.0 | 10.0 | 0.00 | 0.00 | 0.00 | 41 | 1013.9 |
| 20260830224009 | 93 | 83 | 5.0 | 10.0 | 0.00 | 0.00 | 0.00 | 40 | 1013.9 |
| 20260830223508 | 93 | 107 | 2.0 | 10.0 | 0.00 | 0.00 | 0.00 | 41 | 1014.0 |
| 20260830223008 | 93 | 101 | 2.0 | 11.0 | 0.00 | 0.00 | 0.00 | 41 | 1014.0 |
| 20260830222507 | 93 | 81 | 3.0 | 11.0 | 0.00 | 0.00 | 0.00 | 42 | 1014.0 |
| 20260830222011 | 93 | 114 | 2.0 | 8.0 | 0.00 | 0.00 | 0.00 | 41 | 1014.1 |
| 20260830221509 | 94 | 131 | 3.0 | 8.0 | 0.00 | 0.00 | 0.00 | 40 | 1014.0 |
| 20260830221006 | 94 | 106 | 2.0 | 9.0 | 0.00 | 0.00 | 0.00 | 39 | 1014.1 |
| 20260830220510 | 95 | 88 | 4.0 | 13.0 | 0.00 | 0.00 | 0.00 | 38 | 1014.1 |
| 20260830220005 | 95 | 107 | 5.0 | 13.0 | 0.00 | 0.00 | 0.00 | 39 | 1014.0 |
| 20260830215504 | 95 | 108 | 7.0 | 13.0 | 0.00 | 0.00 | 0.00 | 40 | 1014.1 |
| 20260830215006 | 95 | 108 | 2.0 | 8.0 | 0.00 | 0.00 | 0.00 | 40 | 1014.1 |
| 20260830214504 | 94 | 130 | 1.0 | 11.0 | 0.00 | 0.00 | 0.00 | 39 | 1014.1 |
| 20260830214004 | 95 | 132 | 3.0 | 11.0 | 0.00 | 0.00 | 0.00 | 38 | 1014.2 |
| 20260830213504 | 96 | 110 | 1.0 | 7.0 | 0.00 | 0.00 | 0.00 | 39 | 1014.2 |
| 20260830213005 | 96 | 116 | 1.0 | 7.0 | 0.00 | 0.00 | 0.00 | 38 | 1014.4 |
| 20260830212502 | 96 | 131 | 1.0 | 11.0 | 0.00 | 0.00 | 0.00 | 38 | 1014.4 |
| 20260830212001 | 96 | 111 | 2.0 | 10.0 | 0.00 | 0.00 | 0.00 | 39 | 1014.6 |
| 20260830211501 | 96 | 122 | 3.0 | 10.0 | 0.00 | 0.00 | 0.00 | 40 | 1014.4 |
| 20260830211101 | 96 | 119 | 3.0 | 9.0 | 0.00 | 0.00 | 0.00 | 39 | 1014.6 |
| 20260830210601 | 96 | 108 | 2.0 | 8.0 | 0.00 | 0.00 | 0.00 | 39 | 1014.8 |
| 20260830210106 | 96 | 128 | 2.0 | 9.0 | 0.00 | 0.00 | 0.00 | 41 | 1014.8 |
| 20260830205557 | 97 | 131 | 3.0 | 9.0 | 0.00 | 0.00 | 0.00 | 39 | 1014.8 |
| 20260830205058 | 97 | 101 | 2.0 | 9.0 | 0.00 | 0.00 | 0.00 | 40 | 1014.8 |
| 20260830204557 | 96 | 88 | 4.0 | 11.0 | 0.00 | 0.00 | 0.00 | 41 | 1015.0 |
| 20260830204056 | 97 | 108 | 2.0 | 11.0 | 0.00 | 0.00 | 0.00 | 40 | 1015.2 |
| 20260830203554 | 96 | 95 | 2.0 | 8.0 | 0.00 | 0.00 | 0.00 | 40 | 1015.3 |
| 20260830203054 | 96 | 127 | 3.0 | 8.0 | 0.00 | 0.00 | 0.00 | 42 | 1015.4 |
| 20260830202552 | 96 | 98 | 4.0 | 14.0 | 0.00 | 0.00 | 0.00 | 41 | 1015.4 |
| 20260830202051 | 96 | 120 | 2.0 | 14.0 | 0.00 | 0.00 | 0.00 | 43 | 1015.4 |
| 20260830201551 | 95 | 109 | 2.0 | 14.0 | 0.00 | 0.00 | 0.00 | 42 | 1015.5 |
| 20260830201050 | 95 | 110 | 5.0 | 14.0 | 0.00 | 0.00 | 0.00 | 41 | 1015.7 |
| 20260830200548 | 96 | 89 | 5.0 | 12.0 | 0.00 | 0.00 | 0.00 | 42 | 1015.8 |
| 20260830200047 | 95 | 115 | 1.0 | 7.0 | 0.00 | 0.00 | 0.00 | 43 | 1015.8 |
| 20260830195546 | 96 | 116 | 3.0 | 9.0 | 0.00 | 0.00 | 0.00 | 42 | 1015.9 |
| 20260830195045 | 95 | 111 | 3.0 | 9.0 | 0.00 | 0.00 | 0.00 | 45 | 1016.1 |
| 20260830194557 | 94 | 123 | 1.0 | 8.0 | 0.00 | 0.00 | 0.00 | 45 | 1016.2 |
| 20260830194046 | 94 | 130 | 2.0 | 8.0 | 0.00 | 0.00 | 0.00 | 44 | 1016.3 |
| 20260830193542 | 95 | 132 | 1.0 | 7.0 | 0.00 | 0.00 | 0.00 | 44 | 1016.2 |
| 20260830193042 | 95 | 138 | 1.0 | 9.0 | 0.00 | 0.00 | 0.00 | 44 | 1016.4 |
| 20260830192540 | 94 | 92 | 3.0 | 10.0 | 0.00 | 0.00 | 0.00 | 46 | 1016.5 |
| 20260830192038 | 94 | 98 | 2.0 | 10.0 | 0.00 | 0.00 | 0.00 | 47 | 1016.4 |
| 20260830191540 | 94 | 125 | 2.0 | 7.0 | 0.00 | 0.00 | 0.00 | 47 | 1016.5 |
| 20260830191037 | 94 | 132 | 2.0 | 8.0 | 0.00 | 0.00 | 0.00 | 46 | 1016.6 |
| 20260830190536 | 94 | 141 | 2.0 | 8.0 | 0.00 | 0.00 | 0.00 | 47 | 1016.7 |
| 20260830190037 | 94 | 126 | 1.0 | 8.0 | 0.00 | 0.00 | 0.00 | 46 | 1016.7 |
| 20260830185534 | 94 | 126 | 3.0 | 8.0 | 0.00 | 0.00 | 0.00 | 48 | 1016.9 |
| 20260830185033 | 92 | 140 | 2.0 | 6.0 | 0.00 | 0.00 | 0.00 | 50 | 1016.9 |
| 20260830184532 | 93 | 98 | 3.0 | 10.0 | 0.00 | 0.00 | 0.00 | 48 | 1017.0 |
| 20260830184030 | 93 | 96 | 3.0 | 13.0 | 0.00 | 0.00 | 0.00 | 51 | 1017.1 |
| 20260830183529 | 93 | 96 | 4.0 | 13.0 | 0.00 | 0.00 | 0.00 | 49 | 1017.2 |
| 20260830183034 | 93 | 101 | 2.0 | 10.0 | 0.00 | 0.00 | 0.00 | 48 | 1017.3 |
| 20260830182530 | 93 | 115 | 3.0 | 7.0 | 0.00 | 0.00 | 0.00 | 49 | 1017.4 |
| 20260830182031 | 92 | 126 | 2.0 | 7.0 | 0.00 | 0.00 | 0.00 | 50 | 1017.5 |
| 20260830181526 | 93 | 124 | 1.0 | 8.0 | 0.00 | 0.00 | 0.00 | 49 | 1017.5 |
| 20260830181024 | 93 | 132 | 2.0 | 8.0 | 0.00 | 0.00 | 0.00 | 49 | 1017.7 |
| 20260830180524 | 93 | 108 | 1.0 | 11.0 | 0.00 | 0.00 | 0.00 | 47 | 1017.8 |
| 20260830180032 | 93 | 95 | 2.0 | 11.0 | 0.00 | 0.00 | 0.00 | 49 | 1017.7 |
| 20260830175521 | 92 | 115 | 2.0 | 8.0 | 0.00 | 0.00 | 0.00 | 52 | 1017.8 |
| 20260830175020 | 91 | 113 | 2.0 | 8.0 | 0.00 | 0.00 | 0.00 | 49 | 1017.9 |
| 20260830174526 | 91 | 130 | 2.0 | 14.0 | 0.00 | 0.00 | 0.00 | 52 | 1017.9 |
| 20260830174020 | 90 | 155 | 3.0 | 14.0 | 0.00 | 0.00 | 0.00 | 52 | 1017.9 |
| 20260830173519 | 90 | 103 | 1.0 | 7.0 | 0.00 | 0.00 | 0.00 | 54 | 1018.0 |
| 20260830173019 | 91 | 103 | 2.0 | 9.0 | 0.00 | 0.00 | 0.00 | 52 | 1018.0 |
| 20260830172520 | 91 | 119 | 2.0 | 13.0 | 0.00 | 0.00 | 0.00 | 53 | 1018.1 |
| 20260830172017 | 91 | 94 | 5.0 | 13.0 | 0.00 | 0.00 | 0.00 | 53 | 1018.1 |
| 20260830171518 | 90 | 107 | 3.0 | 10.0 | 0.00 | 0.00 | 0.00 | 53 | 1018.1 |
| 20260830171015 | 90 | 109 | 1.0 | 7.0 | 0.00 | 0.00 | 0.00 | 56 | 1018.2 |
| 20260830170516 | 89 | 165 | 1.0 | 4.0 | 0.00 | 0.00 | 0.00 | 55 | 1018.4 |
| 20260830170011 | 89 | 165 | 0.0 | 3.0 | 0.00 | 0.00 | 0.00 | 56 | 1018.4 |
| 20260830165509 | 88 | 165 | 0.0 | 3.0 | 0.00 | 0.00 | 0.00 | 58 | 1018.4 |
| 20260830165011 | 88 | 164 | 0.0 | 3.0 | 0.00 | 0.00 | 0.00 | 60 | 1018.5 |
| 20260830164508 | 86 | 164 | 0.0 | 5.0 | 0.00 | 0.00 | 0.00 | 60 | 1018.5 |
| 20260830164007 | 86 | 164 | 1.0 | 5.0 | 0.00 | 0.00 | 0.00 | 61 | 1018.5 |
| 20260830163505 | 85 | 164 | 0.0 | 6.0 | 0.00 | 0.00 | 0.00 | 62 | 1018.5 |
| 20260830163013 | 85 | 164 | 2.0 | 6.0 | 0.00 | 0.00 | 0.00 | 64 | 1018.6 |
| 20260830162503 | 85 | 167 | 0.0 | 4.0 | 0.00 | 0.00 | 0.00 | 64 | 1018.5 |
| 20260830162003 | 85 | 167 | 1.0 | 4.0 | 0.00 | 0.00 | 0.00 | 64 | 1018.5 |
| 20260830161502 | 85 | 167 | 1.0 | 4.0 | 0.00 | 0.00 | 0.00 | 63 | 1018.5 |
| 20260830161001 | 85 | 167 | 1.0 | 6.0 | 0.00 | 0.00 | 0.00 | 65 | 1018.4 |
| 20260830160500 | 85 | 167 | 1.0 | 6.0 | 0.00 | 0.00 | 0.00 | 65 | 1018.5 |
| 20260830160107 | 84 | 190 | 0.0 | 4.0 | 0.00 | 0.00 | 0.00 | 66 | 1018.4 |
| 20260830155558 | 83 | 192 | 0.0 | 2.0 | 0.00 | 0.00 | 0.00 | 67 | 1018.4 |
| 20260830155058 | 83 | 192 | 0.0 | 4.0 | 0.00 | 0.00 | 0.00 | 68 | 1018.5 |
| 20260830154557 | 82 | 192 | 0.0 | 4.0 | 0.00 | 0.00 | 0.00 | 67 | 1018.4 |
| 20260830154059 | 82 | 232 | 0.0 | 3.0 | 0.00 | 0.00 | 0.00 | 67 | 1018.5 |
| 20260830153556 | 82 | 232 | 0.0 | 3.0 | 0.00 | 0.00 | 0.00 | 67 | 1018.4 |
| 20260830153055 | 83 | 232 | 0.0 | 5.0 | 0.00 | 0.00 | 0.00 | 66 | 1018.4 |
| 20260830152554 | 84 | 165 | 0.0 | 5.0 | 0.00 | 0.00 | 0.00 | 66 | 1018.4 |
| 20260830152053 | 84 | 204 | 0.0 | 2.0 | 0.00 | 0.00 | 0.00 | 66 | 1018.4 |
| 20260830151552 | 84 | 204 | 0.0 | 5.0 | 0.00 | 0.00 | 0.00 | 67 | 1018.3 |
| 20260830151051 | 83 | 130 | 0.0 | 2.0 | 0.00 | 0.00 | 0.00 | 68 | 1018.3 |
| 20260830150553 | 82 | 130 | 0.0 | 2.0 | 0.00 | 0.00 | 0.00 | 69 | 1018.4 |
| 20260830150049 | 81 | 130 | 0.0 | 2.0 | 0.00 | 0.00 | 0.00 | 69 | 1018.4 |
| 20260830145547 | 81 | 130 | 0.0 | 2.0 | 0.00 | 0.00 | 0.00 | 69 | 1018.4 |
| 20260830145051 | 81 | 130 | 0.0 | 3.0 | 0.00 | 0.00 | 0.00 | 69 | 1018.4 |
| 20260830144600 | 82 | 129 | 0.0 | 3.0 | 0.00 | 0.00 | 0.00 | 69 | 1018.4 |
| 20260830144044 | 82 | 129 | 1.0 | 3.0 | 0.00 | 0.00 | 0.00 | 69 | 1018.4 |
| 20260830143543 | 81 | 129 | 1.0 | 4.0 | 0.00 | 0.00 | 0.00 | 70 | 1018.4 |
| 20260830143049 | 81 | 129 | 1.0 | 5.0 | 0.00 | 0.00 | 0.00 | 70 | 1018.4 |
| 20260830142541 | 80 | 129 | 2.0 | 5.0 | 0.00 | 0.00 | 0.00 | 71 | 1018.4 |
| 20260830142038 | 79 | 129 | 1.0 | 4.0 | 0.00 | 0.00 | 0.00 | 71 | 1018.3 |
| 20260830141540 | 79 | 128 | 1.0 | 6.0 | 0.00 | 0.00 | 0.00 | 71 | 1018.1 |
| 20260830141037 | 78 | 128 | 2.0 | 6.0 | 0.00 | 0.00 | 0.00 | 70 | 1018.2 |
| 20260830140535 | 78 | 128 | 1.0 | 6.0 | 0.00 | 0.00 | 0.00 | 70 | 1018.2 |
| 20260830140041 | 77 | 126 | 1.0 | 6.0 | 0.00 | 0.00 | 0.00 | 69 | 1018.1 |
| 20260830135534 | 77 | 125 | 1.0 | 4.0 | 0.00 | 0.00 | 0.00 | 68 | 1018.2 |
| 20260830135033 | 76 | 124 | 1.0 | 4.0 | 0.00 | 0.00 | 0.00 | 66 | 1018.2 |
| 20260830134540 | 76 | 123 | 1.0 | 3.0 | 0.00 | 0.00 | 0.00 | 63 | 1018.2 |
| 20260830134032 | 76 | 123 | 0.0 | 7.0 | 0.00 | 0.00 | 0.00 | 61 | 1018.2 |
| 20260830133534 | 75 | 123 | 0.0 | 7.0 | 0.00 | 0.00 | 0.00 | 59 | 1018.2 |
| 20260830133029 | 75 | 121 | 1.0 | 4.0 | 0.00 | 0.00 | 0.00 | 58 | 1018.1 |
| 20260830132529 | 75 | 121 | 0.0 | 3.0 | 0.00 | 0.00 | 0.00 | 57 | 1018.0 |
| 20260830132028 | 75 | 121 | 0.0 | 4.0 | 0.00 | 0.00 | 0.00 | 57 | 1018.0 |
| 20260830131533 | 75 | 121 | 0.0 | 4.0 | 0.00 | 0.00 | 0.00 | 56 | 1017.9 |
| 20260830131028 | 75 | 121 | 0.0 | 2.0 | 0.00 | 0.00 | 0.00 | 56 | 1017.9 |
| 20260830130526 | 74 | 121 | 0.0 | 1.0 | 0.00 | 0.00 | 0.00 | 56 | 1017.9 |
| 20260830130029 | 74 | 121 | 0.0 | 2.0 | 0.00 | 0.00 | 0.00 | 57 | 1017.9 |
| 20260830125524 | 74 | 121 | 0.0 | 2.0 | 0.00 | 0.00 | 0.00 | 58 | 1017.8 |
| 20260830125024 | 74 | 121 | 0.0 | 0.0 | 0.00 | 0.00 | 0.00 | 59 | 1017.7 |
| 20260830124523 | 74 | 121 | 0.0 | 0.0 | 0.00 | 0.00 | 0.00 | 59 | 1017.7 |
| 20260830124023 | 74 | 121 | 0.0 | 0.0 | 0.00 | 0.00 | 0.00 | 60 | 1017.7 |
| 20260830123524 | 74 | 121 | 0.0 | 0.0 | 0.00 | 0.00 | 0.00 | 60 | 1017.5 |
| 20260830123024 | 74 | 121 | 0.0 | 0.0 | 0.00 | 0.00 | 0.00 | 61 | 1017.5 |
| 20260830122522 | 74 | 121 | 0.0 | 0.0 | 0.00 | 0.00 | 0.00 | 61 | 1017.4 |
| 20260830122021 | 74 | 121 | 0.0 | 0.0 | 0.00 | 0.00 | 0.00 | 61 | 1017.4 |
| 20260830121535 | 74 | 121 | 0.0 | 0.0 | 0.00 | 0.00 | 0.00 | 61 | 1017.4 |
| 20260830121021 | 74 | 121 | 0.0 | 1.0 | 0.00 | 0.00 | 0.00 | 61 | 1017.4 |
| 20260830120520 | 74 | 121 | 0.0 | 1.0 | 0.00 | 0.00 | 0.00 | 61 | 1017.4 |
| 20260830120020 | 74 | 121 | 0.0 | 0.0 | 0.00 | 0.00 | 0.00 | 62 | 1017.4 |
| 20260830115520 | 74 | 121 | 0.0 | 2.0 | 0.00 | 0.00 | 0.00 | 62 | 1017.4 |
| 20260830115018 | 74 | 121 | 0.0 | 2.0 | 0.00 | 0.00 | 0.00 | 62 | 1017.4 |
| 20260830114519 | 74 | 121 | 0.0 | 1.0 | 0.00 | 0.00 | 0.00 | 62 | 1017.3 |
| 20260830114018 | 74 | 121 | 0.0 | 1.0 | 0.00 | 0.00 | 0.00 | 62 | 1017.2 |
| 20260830113520 | 74 | 121 | 0.0 | 1.0 | 0.00 | 0.00 | 0.00 | 62 | 1017.3 |
| 20260830113019 | 74 | 121 | 0.0 | 1.0 | 0.00 | 0.00 | 0.00 | 62 | 1017.4 |
| 20260830112518 | 74 | 121 | 0.0 | 0.0 | 0.00 | 0.00 | 0.00 | 62 | 1017.5 |
| 20260830112022 | 74 | 121 | 0.0 | 0.0 | 0.00 | 0.00 | 0.00 | 62 | 1017.5 |
| 20260830111518 | 74 | 121 | 0.0 | 1.0 | 0.00 | 0.00 | 0.00 | 63 | 1017.4 |
| 20260830111017 | 74 | 121 | 0.0 | 1.0 | 0.00 | 0.00 | 0.00 | 63 | 1017.4 |
| 20260830110516 | 74 | 121 | 0.0 | 1.0 | 0.00 | 0.00 | 0.00 | 63 | 1017.3 |
| 20260830110017 | 74 | 121 | 0.0 | 2.0 | 0.00 | 0.00 | 0.00 | 63 | 1017.3 |
| 20260830105516 | 74 | 121 | 0.0 | 2.0 | 0.00 | 0.00 | 0.00 | 64 | 1017.2 |
| 20260830105016 | 74 | 121 | 0.0 | 2.0 | 0.00 | 0.00 | 0.00 | 65 | 1017.1 |
| 20260830104516 | 74 | 121 | 0.0 | 1.0 | 0.00 | 0.00 | 0.00 | 65 | 1017.1 |
| 20260830104015 | 74 | 121 | 0.0 | 0.0 | 0.00 | 0.00 | 0.00 | 66 | 1017.3 |
| 20260830103515 | 74 | 121 | 0.0 | 0.0 | 0.00 | 0.00 | 0.00 | 66 | 1017.2 |
| 20260830103022 | 74 | 121 | 0.0 | 1.0 | 0.00 | 0.00 | 0.00 | 66 | 1017.2 |
| 20260830102514 | 74 | 121 | 0.0 | 0.0 | 0.00 | 0.00 | 0.00 | 67 | 1017.2 |
| 20260830102013 | 74 | 121 | 0.0 | 0.0 | 0.00 | 0.00 | 0.00 | 67 | 1017.2 |
| 20260830101514 | 74 | 121 | 0.0 | 0.0 | 0.00 | 0.00 | 0.00 | 67 | 1017.4 |
| 20260830101014 | 74 | 121 | 0.0 | 1.0 | 0.00 | 0.00 | 0.00 | 67 | 1017.4 |
| 20260830100514 | 74 | 121 | 0.0 | 1.0 | 0.00 | 0.00 | 0.00 | 67 | 1017.3 |
| 20260830100014 | 74 | 121 | 0.0 | 1.0 | 0.00 | 0.00 | 0.00 | 67 | 1017.2 |
| 20260830095513 | 74 | 121 | 0.0 | 3.0 | 0.00 | 0.00 | 0.00 | 68 | 1017.2 |
| 20260830095013 | 74 | 121 | 0.0 | 3.0 | 0.00 | 0.00 | 0.00 | 68 | 1017.2 |
| 20260830094513 | 74 | 121 | 0.0 | 3.0 | 0.00 | 0.00 | 0.00 | 69 | 1017.3 |
| 20260830094012 | 74 | 121 | 0.0 | 3.0 | 0.00 | 0.00 | 0.00 | 69 | 1017.2 |
| 20260830093512 | 74 | 121 | 0.0 | 2.0 | 0.00 | 0.00 | 0.00 | 69 | 1017.2 |
| 20260830093012 | 74 | 121 | 0.0 | 4.0 | 0.00 | 0.00 | 0.00 | 69 | 1017.3 |
| 20260830092511 | 74 | 121 | 0.0 | 4.0 | 0.00 | 0.00 | 0.00 | 70 | 1017.2 |
| 20260830092011 | 74 | 121 | 0.0 | 2.0 | 0.00 | 0.00 | 0.00 | 70 | 1017.2 |
| 20260830091515 | 74 | 121 | 0.0 | 2.0 | 0.00 | 0.00 | 0.00 | 70 | 1017.3 |
| 20260830091010 | 74 | 121 | 0.0 | 2.0 | 0.00 | 0.00 | 0.00 | 70 | 1017.3 |
| 20260830090513 | 74 | 121 | 0.0 | 1.0 | 0.00 | 0.00 | 0.00 | 71 | 1017.3 |
| 20260830090013 | 75 | 121 | 0.0 | 2.0 | 0.00 | 0.00 | 0.00 | 71 | 1017.3 |
| 20260830085509 | 75 | 121 | 0.0 | 3.0 | 0.00 | 0.00 | 0.00 | 71 | 1017.3 |
| 20260830085008 | 75 | 121 | 0.0 | 3.0 | 0.00 | 0.00 | 0.00 | 71 | 1017.2 |
| 20260830084508 | 75 | 121 | 1.0 | 3.0 | 0.00 | 0.00 | 0.00 | 71 | 1017.3 |
| 20260830084009 | 75 | 121 | 0.0 | 4.0 | 0.00 | 0.00 | 0.00 | 71 | 1017.3 |
| 20260830083507 | 75 | 121 | 1.0 | 4.0 | 0.00 | 0.00 | 0.00 | 71 | 1017.2 |
| 20260830083007 | 75 | 121 | 0.0 | 3.0 | 0.00 | 0.00 | 0.00 | 71 | 1017.3 |
| 20260830082510 | 75 | 121 | 0.0 | 3.0 | 0.00 | 0.00 | 0.00 | 71 | 1017.3 |
| 20260830082006 | 75 | 121 | 0.0 | 2.0 | 0.00 | 0.00 | 0.00 | 71 | 1017.3 |
| 20260830081506 | 75 | 121 | 0.0 | 3.0 | 0.00 | 0.00 | 0.00 | 71 | 1017.3 |
| 20260830081005 | 75 | 121 | 0.0 | 3.0 | 0.00 | 0.00 | 0.00 | 72 | 1017.4 |
| 20260830080505 | 75 | 121 | 0.0 | 0.0 | 0.00 | 0.00 | 0.00 | 72 | 1017.4 |
| 20260830080004 | 75 | 121 | 0.0 | 0.0 | 0.00 | 0.01 | 0.00 | 72 | 1017.3 |
| 20260830075506 | 75 | 121 | 0.0 | 0.0 | 0.00 | 0.01 | 0.00 | 72 | 1017.4 |
| 20260830075003 | 75 | 121 | 0.0 | 1.0 | 0.00 | 0.01 | 0.00 | 72 | 1017.5 |
| 20260830074504 | 75 | 121 | 0.0 | 1.0 | 0.00 | 0.01 | 0.00 | 71 | 1017.5 |
| 20260830074001 | 75 | 121 | 0.0 | 2.0 | 0.00 | 0.01 | 0.00 | 72 | 1017.5 |
| 20260830073501 | 75 | 121 | 0.0 | 2.0 | 0.00 | 0.01 | 0.00 | 71 | 1017.6 |
| 20260830073003 | 75 | 121 | 0.0 | 2.0 | 0.00 | 0.01 | 0.00 | 71 | 1017.6 |
| 20260830072603 | 76 | 121 | 0.0 | 2.0 | 0.00 | 0.01 | 0.00 | 71 | 1017.7 |
| 20260830072059 | 76 | 121 | 0.0 | 2.0 | 0.00 | 0.01 | 0.00 | 71 | 1017.7 |
| 20260830071559 | 76 | 121 | 0.0 | 2.0 | 0.00 | 0.01 | 0.00 | 71 | 1017.7 |
| 20260830071057 | 76 | 121 | 0.0 | 2.0 | 0.00 | 0.01 | 0.00 | 71 | 1017.6 |
| 20260830070558 | 76 | 121 | 0.0 | 3.0 | 0.00 | 0.01 | 0.00 | 71 | 1017.6 |
| 20260830070107 | 76 | 121 | 0.0 | 3.0 | 0.00 | 0.01 | 0.00 | 71 | 1017.6 |
| 20260830065556 | 76 | 121 | 1.0 | 4.0 | 0.00 | 0.01 | 0.00 | 71 | 1017.7 |
| 20260830065056 | 76 | 121 | 1.0 | 4.0 | 0.00 | 0.01 | 0.00 | 71 | 1017.7 |
| 20260830064556 | 76 | 121 | 0.0 | 4.0 | 0.00 | 0.01 | 0.00 | 71 | 1017.6 |
| 20260830064056 | 76 | 121 | 1.0 | 4.0 | 0.00 | 0.01 | 0.00 | 71 | 1017.6 |
| 20260830063556 | 77 | 121 | 1.0 | 4.0 | 0.00 | 0.01 | 0.00 | 71 | 1017.7 |
| 20260830063110 | 77 | 121 | 1.0 | 4.0 | 0.00 | 0.01 | 0.00 | 70 | 1017.6 |
| 20260830062554 | 77 | 121 | 1.0 | 3.0 | 0.00 | 0.01 | 0.00 | 70 | 1017.6 |
| 20260830062054 | 77 | 121 | 1.0 | 4.0 | 0.00 | 0.01 | 0.00 | 70 | 1017.6 |
| 20260830061600 | 77 | 121 | 1.0 | 4.0 | 0.00 | 0.01 | 0.00 | 70 | 1017.6 |
| 20260830061053 | 77 | 121 | 0.0 | 3.0 | 0.00 | 0.01 | 0.00 | 70 | 1017.6 |
| 20260830060555 | 77 | 121 | 1.0 | 4.0 | 0.00 | 0.01 | 0.00 | 70 | 1017.6 |
| 20260830060052 | 77 | 121 | 1.0 | 4.0 | 0.00 | 0.01 | 0.00 | 70 | 1017.5 |
| 20260830055551 | 77 | 121 | 2.0 | 4.0 | 0.00 | 0.01 | 0.00 | 69 | 1017.5 |
| 20260830055050 | 77 | 121 | 1.0 | 4.0 | 0.00 | 0.01 | 0.00 | 69 | 1017.5 |
| 20260830054559 | 77 | 121 | 0.0 | 2.0 | 0.00 | 0.01 | 0.00 | 69 | 1017.6 |
| 20260830054049 | 78 | 121 | 0.0 | 2.0 | 0.00 | 0.01 | 0.00 | 68 | 1017.6 |
| 20260830053548 | 78 | 121 | 0.0 | 2.0 | 0.00 | 0.01 | 0.00 | 68 | 1017.5 |
| 20260830053048 | 78 | 121 | 0.0 | 3.0 | 0.00 | 0.01 | 0.00 | 68 | 1017.5 |
| 20260830052547 | 78 | 121 | 0.0 | 2.0 | 0.00 | 0.01 | 0.00 | 68 | 1017.5 |
| 20260830052046 | 78 | 121 | 0.0 | 2.0 | 0.00 | 0.01 | 0.00 | 68 | 1017.5 |
| 20260830051545 | 78 | 121 | 0.0 | 4.0 | 0.00 | 0.01 | 0.00 | 67 | 1017.6 |
| 20260830051044 | 79 | 121 | 1.0 | 4.0 | 0.00 | 0.01 | 0.00 | 67 | 1017.5 |
| 20260830050543 | 79 | 121 | 0.0 | 3.0 | 0.00 | 0.01 | 0.00 | 67 | 1017.6 |
| 20260830050045 | 79 | 121 | 0.0 | 4.0 | 0.00 | 0.01 | 0.00 | 67 | 1017.5 |
| 20260830045540 | 79 | 121 | 1.0 | 5.0 | 0.00 | 0.01 | 0.01 | 66 | 1017.5 |
| 20260830045045 | 79 | 121 | 1.0 | 5.0 | 0.00 | 0.01 | 0.01 | 66 | 1017.6 |
| 20260830044556 | 80 | 121 | 1.0 | 7.0 | 0.00 | 0.01 | 0.01 | 65 | 1017.5 |
| 20260830044040 | 80 | 121 | 2.0 | 7.0 | 0.00 | 0.01 | 0.01 | 65 | 1017.6 |
| 20260830043540 | 80 | 123 | 1.0 | 4.0 | 0.00 | 0.01 | 0.01 | 64 | 1017.6 |
| 20260830043045 | 80 | 123 | 0.0 | 3.0 | 0.00 | 0.01 | 0.01 | 64 | 1017.5 |
| 20260830042539 | 81 | 123 | 0.0 | 4.0 | 0.00 | 0.01 | 0.01 | 64 | 1017.6 |
| 20260830042040 | 81 | 123 | 1.0 | 7.0 | 0.00 | 0.01 | 0.01 | 64 | 1017.5 |
| 20260830041550 | 81 | 123 | 1.0 | 7.0 | 0.00 | 0.01 | 0.01 | 64 | 1017.5 |
| 20260830041038 | 81 | 114 | 0.0 | 3.0 | 0.00 | 0.01 | 0.01 | 63 | 1017.4 |
| 20260830040541 | 81 | 114 | 1.0 | 4.0 | 0.00 | 0.01 | 0.01 | 64 | 1017.5 |
| 20260830040039 | 82 | 114 | 2.0 | 4.0 | 0.00 | 0.01 | 0.01 | 63 | 1017.4 |
| 20260830035537 | 82 | 114 | 1.0 | 4.0 | 0.00 | 0.01 | 0.01 | 62 | 1017.2 |
| 20260830035037 | 82 | 115 | 1.0 | 5.0 | 0.00 | 0.01 | 0.01 | 62 | 1017.2 |
| 20260830034537 | 82 | 114 | 2.0 | 5.0 | 0.00 | 0.01 | 0.01 | 62 | 1017.3 |
| 20260830034037 | 82 | 115 | 0.0 | 7.0 | 0.00 | 0.01 | 0.01 | 61 | 1017.2 |
| 20260830033536 | 82 | 115 | 2.0 | 7.0 | 0.00 | 0.01 | 0.01 | 62 | 1017.4 |
| 20260830033037 | 82 | 121 | 2.0 | 5.0 | 0.00 | 0.01 | 0.01 | 61 | 1017.2 |
| 20260830032536 | 82 | 119 | 2.0 | 5.0 | 0.00 | 0.01 | 0.01 | 62 | 1017.2 |
| 20260830032036 | 83 | 108 | 1.0 | 4.0 | 0.00 | 0.01 | 0.01 | 62 | 1017.1 |
| 20260830031537 | 83 | 108 | 2.0 | 5.0 | 0.00 | 0.01 | 0.01 | 62 | 1017.1 |
| 20260830031036 | 83 | 108 | 1.0 | 5.0 | 0.00 | 0.01 | 0.01 | 62 | 1017.0 |